This is the latest recevied weather packets stored in our database for station/object MB7UWV-13. If no packets are shown the sender has not sent any weather packets the latest 1 day(s).
| Time | Temp. | Humidity | Pressure | Rain* | Wind** | Luminosity | Snow |
|---|---|---|---|---|---|---|---|
| 1778015005 | 6.67° C | 75% | 1003.7 hPa | 0 mm | 0.45 m/s, 105° | - | - |
| 1778014105 | 7.22° C | 75% | 1003.4 hPa | 0 mm | 0 m/s | - | - |
| 1778013204 | 7.22° C | 75% | 1003.4 hPa | 0 mm | 0 m/s | - | - |
| 1778012305 | 7.22° C | 74% | 1003.4 hPa | 0 mm | 0.89 m/s, 108° | - | - |
| 1778011405 | 7.22° C | 74% | 1003 hPa | 0 mm | 0 m/s | - | - |
| 1778010505 | 7.22° C | 74% | 1003 hPa | 0 mm | 0.45 m/s, 120° | - | - |
| 1778009605 | 7.78° C | 74% | 1003 hPa | 0 mm | 0.89 m/s, 275° | - | - |
| 1778008706 | 7.78° C | 75% | 1002.7 hPa | 0 mm | 0.89 m/s, 102° | - | - |
| 1778007805 | 7.78° C | 75% | 1002.7 hPa | 0 mm | 0.89 m/s, 151° | - | - |
| 1778006905 | 7.78° C | 76% | 1002.7 hPa | 0 mm | 0 m/s | - | - |
| 1778006005 | 7.78° C | 75% | 1002.7 hPa | 0 mm | 0.45 m/s, 127° | - | - |
| 1778005104 | 8.33° C | 75% | 1002.7 hPa | 0 mm | 1.79 m/s, 119° | - | - |
| 1778004211 | 8.33° C | 75% | 1002.4 hPa | 0 mm | 0.45 m/s, 336° | - | - |
| 1778003305 | 8.89° C | 75% | 1002.7 hPa | 0 mm | 0.45 m/s, 115° | - | - |
| 1778002405 | 8.89° C | 75% | 1002.4 hPa | 0 mm | 0.89 m/s, 149° | - | - |
| 1778001505 | 9.44° C | 73% | 1002.4 hPa | 0 mm | 0.89 m/s, 306° | - | - |
| 1778000605 | 10° C | 72% | 1002.4 hPa | 0 mm | 0.45 m/s, 282° | - | - |
| 1777999705 | 11.11° C | 71% | 1002.4 hPa | 0 mm | 0.45 m/s, 178° | - | - |
| 1777998805 | 11.11° C | 70% | 1002 hPa | 0 mm | 0.45 m/s, 306° | - | - |
| 1777997905 | 11.11° C | 69% | 1002 hPa | 0 mm | 0.45 m/s, 356° | - | - |
| 1777997005 | 10.56° C | 71% | 1002 hPa | 0 mm | 0 m/s | - | - |
| 1777996106 | 10.56° C | 71% | 1002 hPa | 0 mm | 0.89 m/s, 284° | - | - |
| 1777995205 | 10.56° C | 72% | 1002 hPa | 0 mm | 1.34 m/s, 53° | - | - |
| 1777994306 | 11.11° C | 72% | 1002 hPa | 0 mm | 0.45 m/s, 293° | - | - |
| 1777993405 | 11.11° C | 72% | 1002 hPa | 0 mm | 0.45 m/s, 278° | - | - |
* Rain latest hour (hover to see other rain measurements)
** Current wind speed in m/s (hover to see current wind gust speed)